This demonstration page uses our WeatherBlox Daily Observations layout. Learn more.

Left ArrowRight Arrow

39.92423, -83.80882

Hourly Observations for June 9, 2018

Temp ( °F °C ) Dew Point ( °F °C ) Humidity (%) Winds ( mph kmh ) Pressure ( in mb ) Visibility ( mi km ) Precip ( " mm )
12:56 am 00:56 Clear 66 18.9 63 17.2 90 90 SW 6 9 30.12 1020 10 16.0934 N/A
1:56 am 01:56 Clear 66 18.9 62 16.7 87 87 WSW 12 19 30.12 1020 10 16.0934 N/A
2:56 am 02:56 Clear 69 20.6 60 15.6 73 73 SSW 8 13 30.08 1019 10 16.0934 N/A
3:56 am 03:56 Clear 69 20.6 61 16.1 76 76 WSW 6 9 30.09 1019 10 16.0934 N/A
5:56 am 05:56 Clear 65 18.3 62 16.7 90 90 SE 7 11 30.12 1020 10 16.0934 N/A
6:56 am 06:56 Sunny 65 18.3 62 16.7 90 90 N 6 9 30.14 1021 10 16.0934 N/A
7:56 am 07:56 Sunny 67 19.4 63 17.2 87 87 ENE 3 6 30.14 1021 10 16.0934 N/A
8:56 am 08:56 Sunny 69 20.6 64 17.8 84 84 ENE 7 11 30.14 1021 10 16.0934 N/A
9:56 am 09:56 Sunny 73 22.8 66 18.9 79 79 undefined N/A 30.12 1020 10 16.0934 N/A
10:56 am 10:56 Sunny 76 24.4 65 18.3 69 69 undefined N/A 30.11 1020 10 16.0934 N/A
11:56 am 11:56 Sunny 79 26.1 67 19.4 67 67 SSE 8 13 30.11 1020 10 16.0934 N/A
12:56 pm 12:56 Sunny 81 27.2 69 20.6 67 67 S 6 9 30.08 1019 10 16.0934 N/A
1:56 pm 13:56 Sunny 82 27.8 70 21.1 67 67 VRB 7 11 30.05 1018 10 16.0934 N/A
2:56 pm 14:56 Sunny 84 28.9 70 21.1 63 63 SE 7 11 30.03 1017 10 16.0934 N/A
3:56 pm 15:56 Sunny 85 29.4 69 20.6 59 59 SE 10 17 29.99 1016 10 16.0934 N/A
4:56 pm 16:56 Sunny 84 28.9 67 19.4 57 57 S 8 13 29.98 1015 10 16.0934 N/A
5:05 pm 17:05 Partly Cloudy with Nearby Thunderstorms 82 28 66 19 58 58 S 6 9 29.94 1014 10 16.0934 N/A
5:38 pm 17:38 Partly Cloudy with Thunderstorms 70 21 66 19 88 88 WNW 18 30 30 1016 10 16.0934 0.03 0.762
5:56 pm 17:56 Partly Cloudy with Heavy Thunderstorms 68 20 64 17.8 87 87 NNW 15 24 30.02 1017 7 11.26538 0.11 2.794
6:54 pm 18:54 Partly Cloudy with Light Rain 70 21 66 19 88 88 SSE 3 6 30 1016 10 16.0934 0.04 1.016
6:56 pm 18:56 Partly Cloudy with Light Rain 69 20.6 66 18.9 90 90 S 5 7 30.01 1016 10 16.0934 0.04 1.016
7:56 pm 19:56 Sunny 69 20.6 67 19.4 93 93 N N/A 29.98 1015 10 16.0934 N/A
8:56 pm 20:56 Sunny 68 20 67 19.4 96 96 E 6 9 29.97 1015 10 16.0934 N/A
9:56 pm 21:56 Clear 68 20 66 18.9 93 93 SE 8 13 29.97 1015 10 16.0934 N/A
10:56 pm 22:56 Clear 68 20 65 18.3 90 90 SE 5 7 29.99 1016 10 16.0934 N/A
11:56 pm 23:56 Clear 68 20 66 18.9 93 93 N N/A 29.98 1015 10 16.0934 N/A

Powered by AerisWeather